Le nostre stazioni meteo in Italia

Pubblicità
Il mio iltempo24.it
Monte Settepani, Italia (16111): Temperatura & dewpoint: 12.03.2019 20:00:00 - 18.03.2019 20:00:00 (CET)
Data & Tempo tt [°C] td [°C]
18.03.2019 20:00:00 - -
18.03.2019 19:00:00 2,6 -10,1
18.03.2019 18:00:00 3,9 -8,6
18.03.2019 17:00:00 5,5 -6,8
18.03.2019 16:00:00 6,3 -8,6
18.03.2019 15:00:00 6,6 -6,8
18.03.2019 14:00:00 6,9 -8,8
18.03.2019 13:00:00 6,8 -5,4
18.03.2019 12:00:00 4,8 -7,2
18.03.2019 11:00:00 2,3 -9,4
18.03.2019 10:00:00 2,6 -8,9
18.03.2019 09:00:00 1,8 -9,6
18.03.2019 08:00:00 1,0 -7,1
18.03.2019 07:00:00 0,6 0,6
18.03.2019 06:00:00 0,5 -
18.03.2019 05:00:00 -0,8 -0,8
18.03.2019 04:00:00 1,4 1,4
18.03.2019 03:00:00 2,4 2,4
18.03.2019 02:00:00 3,2 -
18.03.2019 01:00:00 3,7 -
18.03.2019 00:00:00 3,7 3,7
17.03.2019 23:00:00 3,9 3,9
17.03.2019 22:00:00 3,9 3,9
17.03.2019 21:00:00 3,7 3,7
17.03.2019 20:00:00 3,7 3,7
17.03.2019 19:00:00 3,8 3,8
17.03.2019 18:00:00 3,7 3,7
17.03.2019 17:00:00 3,7 3,7
17.03.2019 16:00:00 3,7 3,7
17.03.2019 15:00:00 3,5 3,5
17.03.2019 14:00:00 3,9 3,9
17.03.2019 13:00:00 4,0 4,0
17.03.2019 12:00:00 3,9 3,9
17.03.2019 11:00:00 3,6 3,6
17.03.2019 10:00:00 3,6 3,6
17.03.2019 09:00:00 3,4 3,4
17.03.2019 08:00:00 3,7 3,7
17.03.2019 07:00:00 3,4 3,4
17.03.2019 06:00:00 3,4 3,4
17.03.2019 05:00:00 3,6 3,6
17.03.2019 04:00:00 3,6 3,6
17.03.2019 03:00:00 3,8 3,8
17.03.2019 02:00:00 3,7 3,7
17.03.2019 01:00:00 3,6 3,6
17.03.2019 00:00:00 3,3 3,3
16.03.2019 23:00:00 3,4 3,4
16.03.2019 22:00:00 3,3 3,3
16.03.2019 21:00:00 3,6 3,6
16.03.2019 20:00:00 4,4 -
16.03.2019 19:00:00 5,0 5,0
16.03.2019 18:00:00 5,8 5,8
16.03.2019 17:00:00 9,0 6,4
16.03.2019 16:00:00 11,5 6,6
16.03.2019 15:00:00 12,2 5,1
16.03.2019 14:00:00 14,2 7,0
16.03.2019 13:00:00 13,8 7,5
16.03.2019 12:00:00 13,4 8,0
16.03.2019 11:00:00 13,9 -
16.03.2019 10:00:00 13,1 3,1
16.03.2019 09:00:00 11,4 2,6
16.03.2019 08:00:00 10,7 0,3
16.03.2019 07:00:00 10,7 -0,3
16.03.2019 06:00:00 10,8 -0,2
16.03.2019 05:00:00 10,9 -0,1
16.03.2019 04:00:00 10,2 -0,4
16.03.2019 03:00:00 11,9 -1,7
16.03.2019 02:00:00 11,9 -1,1
16.03.2019 01:00:00 11,2 0,2
16.03.2019 00:00:00 11,4 0,4
15.03.2019 23:00:00 11,5 -0,4
15.03.2019 22:00:00 11,6 -0,4
15.03.2019 21:00:00 - -
15.03.2019 20:00:00 11,8 -
15.03.2019 19:00:00 12,1 -
15.03.2019 18:00:00 12,7 -
15.03.2019 17:00:00 12,5 1,7
15.03.2019 16:00:00 11,8 1,3
15.03.2019 15:00:00 12,1 0,7
15.03.2019 14:00:00 9,7 2,9
15.03.2019 13:00:00 9,8 2,6
15.03.2019 12:00:00 10,8 5,3
15.03.2019 11:00:00 10,6 1,6
15.03.2019 10:00:00 10,0 -
15.03.2019 09:00:00 9,0 -2,1
15.03.2019 08:00:00 6,9 -2,7
15.03.2019 07:00:00 6,6 -2,9
15.03.2019 06:00:00 6,6 -3,5
15.03.2019 05:00:00 7,0 -4,2
15.03.2019 04:00:00 6,9 -
15.03.2019 03:00:00 7,0 -
15.03.2019 02:00:00 6,9 -4,0
15.03.2019 01:00:00 6,6 -2,9
15.03.2019 00:00:00 6,0 -2,7
14.03.2019 23:00:00 4,2 -1,5
14.03.2019 22:00:00 4,3 -2,9
14.03.2019 21:00:00 4,7 -5,2
14.03.2019 20:00:00 4,9 -5,9
14.03.2019 19:00:00 4,3 -6,1
14.03.2019 18:00:00 4,0 -2,7
14.03.2019 17:00:00 4,3 2,9
14.03.2019 16:00:00 5,3 1,2
14.03.2019 15:00:00 7,1 -0,2
14.03.2019 14:00:00 7,5 0,1
14.03.2019 13:00:00 7,2 -0,8
14.03.2019 12:00:00 7,9 -1,2
14.03.2019 11:00:00 6,5 -
14.03.2019 10:00:00 5,4 -10,1
14.03.2019 09:00:00 4,2 -12,0
14.03.2019 08:00:00 2,5 -13,4
14.03.2019 07:00:00 2,1 -13,4
14.03.2019 06:00:00 2,2 -13,7
14.03.2019 05:00:00 1,9 -13,6
14.03.2019 04:00:00 1,6 -13,4
14.03.2019 03:00:00 1,5 -13,1
14.03.2019 02:00:00 - -
14.03.2019 01:00:00 0,7 -12,1
14.03.2019 00:00:00 0,9 -12,0
13.03.2019 23:00:00 1,2 -11,7
13.03.2019 22:00:00 1,4 -12,2
13.03.2019 21:00:00 1,8 -11,8
13.03.2019 20:00:00 2,2 -12,2
13.03.2019 19:00:00 2,9 -12,7
13.03.2019 18:00:00 3,9 -11,8
13.03.2019 17:00:00 4,7 -7,9
13.03.2019 16:00:00 5,3 -
13.03.2019 15:00:00 - -
13.03.2019 14:00:00 - -
13.03.2019 13:00:00 3,6 -7,4
13.03.2019 12:00:00 - -
13.03.2019 11:00:00 5,1 -4,6
13.03.2019 10:00:00 3,2 -4,4
13.03.2019 09:00:00 -0,2 -5,5
13.03.2019 08:00:00 -0,8 -2,1
13.03.2019 07:00:00 -0,1 -2,8
13.03.2019 06:00:00 -0,7 -1,6
13.03.2019 05:00:00 -0,3 -0,3
13.03.2019 04:00:00 -0,5 -0,5
13.03.2019 03:00:00 -0,9 -0,9
13.03.2019 02:00:00 -1,4 -1,4
13.03.2019 01:00:00 -1,3 -1,3
13.03.2019 00:00:00 -1,0 -1,0
12.03.2019 23:00:00 -1,0 -2,9
12.03.2019 22:00:00 0,0 -16,4
12.03.2019 21:00:00 0,7 -11,8
12.03.2019 20:00:00 1,1 -9,6

tt = Temperatura
td = dewpoint

Stazioni seguenti

WeatherPro
AMSI
MeteoEarth